User: anonymous   Login
Location: Caltech
(34.1382°N, 118.1253°W)
Time: 13:25:17
(UTC-07:00)
Language:

ASTRO E2 - Orbit

View from above orbital plane
View from above orbital plane
View from above satellite
View from above satellite

Ground track
Ground track

The orbit data is extracted from the following two-line orbital elements,

1 28773U 05025A   16205.57346601  .00001118  00000-0  54101-4 0  9991
2 28773  31.3826 266.0189 0004866 292.0096  68.0033 15.14890721607467
Epoch (UTC): 23 July 2016 13:45:47
Eccentricity: 0.0004866
inclination: 31.3826°
perigee height: 518 km
apogee height: 524 km
right ascension of ascending node: 266.0189°
argument of perigee: 292.0096°
revolutions per day: 15.14890721
mean anomaly at epoch: 68.0033°
orbit number at epoch: 60746

The dashed part of the orbit path shows where the satellite is in the earth's shadow,  

DLR